This demonstration page uses our WeatherBlox Daily Observations layout. Learn more.

38.88101, -77.10428

Hourly Observations for January 11, 2016

Temp ( °F °C ) Dew Point ( °F °C ) Humidity (%) Winds ( mph kmh ) Pressure ( in mb ) Visibility ( mi km ) Precip ( " mm )
12:52 am 00:52 Clear 36 2.2 17 -8.3 46 46 WNW 16 26 29.87 1012 10 16.0934 0 0
1:52 am 01:52 Clear 34 1.1 14 -10 44 44 WNW 12 19 29.9 1013 10 16.0934 0 0
2:52 am 02:52 Clear 32 0 12 -11.1 43 43 WNW 13 20 29.95 1014 10 16.0934 0 0
3:52 am 03:52 Clear 31 -0.6 12 -11.1 45 45 W 10 17 29.97 1015 10 16.0934 0 0
4:52 am 04:52 Clear 30 -1.1 11 -11.7 45 45 NW 6 9 29.99 1016 10 16.0934 0 0
5:52 am 05:52 Clear 29 -1.7 11 -11.7 47 47 WNW 8 13 30.02 1017 10 16.0934 0 0
6:52 am 06:52 Clear 29 -1.7 9 -12.8 43 43 WNW 15 24 30.04 1017 10 16.0934 0 0
7:52 am 07:52 Sunny 29 -1.7 8 -13.3 41 41 WNW 13 20 30.07 1018 10 16.0934 0 0
8:52 am 08:52 Sunny 30 -1.1 9 -12.8 41 41 WNW 12 19 30.09 1019 10 16.0934 0 0
9:52 am 09:52 Sunny 33 0.6 10 -12.2 38 38 WNW 8 13 30.1 1019 10 16.0934 0 0
10:52 am 10:52 Mostly Sunny 35 1.7 10 -12.2 35 35 WSW 13 20 30.11 1020 10 16.0934 0 0
11:52 am 11:52 Mostly Sunny 37 2.8 10 -12.2 33 33 WSW 13 20 30.08 1019 10 16.0934 0 0
12:52 pm 12:52 Mostly Sunny 38 3.3 10 -12.2 31 31 SW 8 13 30.06 1018 10 16.0934 0 0
1:52 pm 13:52 Mostly Sunny 40 4.4 6 -14.4 24 24 W 9 15 30.04 1017 10 16.0934 0 0
2:52 pm 14:52 Mostly Sunny 40 4.4 6 -14.4 24 24 W 14 22 30.05 1018 10 16.0934 0 0
3:52 pm 15:52 Mostly Sunny 40 4.4 4 -15.6 22 22 WNW 8 13 30.06 1018 10 16.0934 0 0
4:52 pm 16:52 Mostly Sunny 38 3.3 5 -15 25 25 NW 8 13 30.07 1018 10 16.0934 0 0
5:52 pm 17:52 Partly Cloudy 36 2.2 8 -13.3 31 31 NNW 13 20 30.09 1019 10 16.0934 0 0
6:52 pm 18:52 Mostly Cloudy 34 1.1 8 -13.3 34 34 NNW 12 19 30.11 1020 10 16.0934 0 0
7:52 pm 19:52 Mostly Cloudy 32 0 10 -12.2 40 40 N 10 17 30.12 1020 10 16.0934 0 0
8:52 pm 20:52 Partly Cloudy 31 -0.6 11 -11.7 43 43 NNW 8 13 30.13 1020 10 16.0934 0 0
9:52 pm 21:52 Partly Cloudy 30 -1.1 11 -11.7 45 45 N 5 7 30.13 1020 10 16.0934 0 0
10:52 pm 22:52 Mostly Cloudy 31 -0.6 14 -10 49 49 ESE 5 7 30.13 1020 10 16.0934 0 0
11:52 pm 23:52 Mostly Cloudy 31 -0.6 12 -11.1 45 45 Calm 30.11 1020 10 16.0934 0 0

Powered by AerisWeather